Time,TemperatureF,DewpointF,PressureIn,WindDirection,WindDirectionDegrees,WindSpeedMPH,WindSpeedGustMPH,Humidity,HourlyPrecipIn,Conditions,Clouds,dailyrainin,SoftwareType,DateUTC
2013-12-03 00:00:00,31.4,28.5,29.90,ENE,58,0.0,0.0,89,0.00,,---,0.02,VWS V14.00,2013-12-03 05:00:00,
2013-12-03 00:30:00,31.7,28.6,29.90,ENE,59,0.0,0.0,88,0.00,,---,0.00,VWS V14.00,2013-12-03 05:30:00,
2013-12-03 01:00:00,30.7,27.9,29.91,ENE,59,0.0,0.0,89,0.00,,---,0.00,VWS V14.00,2013-12-03 06:00:00,
2013-12-03 01:30:00,30.0,27.4,29.91,ENE,58,1.0,1.0,90,0.00,,---,0.00,VWS V14.00,2013-12-03 06:30:00,
2013-12-03 02:00:00,29.2,27.4,29.91,ENE,58,0.0,1.0,93,0.00,,---,0.00,VWS V14.00,2013-12-03 07:00:00,
2013-12-03 02:30:00,29.0,27.5,29.91,ENE,78,0.0,2.0,94,0.00,,---,0.00,VWS V14.00,2013-12-03 07:30:00,
2013-12-03 03:00:00,29.3,27.5,29.91,ENE,63,0.0,0.0,93,0.00,,---,0.00,VWS V14.00,2013-12-03 08:00:00,
2013-12-03 03:30:00,29.8,27.8,29.91,ENE,63,0.0,0.0,92,0.00,,---,0.00,VWS V14.00,2013-12-03 08:30:00,
2013-12-03 04:00:00,30.1,28.1,29.91,ENE,63,1.0,1.0,92,0.00,,---,0.00,VWS V14.00,2013-12-03 09:00:00,
2013-12-03 04:30:00,29.5,27.7,29.91,ENE,71,0.0,0.0,93,0.00,,---,0.00,VWS V14.00,2013-12-03 09:30:00,
2013-12-03 05:00:00,29.6,27.8,29.91,ENE,71,0.0,0.0,93,0.00,,---,0.00,VWS V14.00,2013-12-03 10:00:00,
2013-12-03 05:30:00,29.8,28.0,29.92,ENE,71,0.0,0.0,93,0.00,,---,0.00,VWS V14.00,2013-12-03 10:30:00,
2013-12-03 06:00:00,29.7,27.9,29.92,ENE,71,0.0,1.0,93,0.00,,---,0.00,VWS V14.00,2013-12-03 11:00:00,
2013-12-03 06:30:00,29.8,28.0,29.92,ENE,71,0.0,0.0,93,0.00,,---,0.00,VWS V14.00,2013-12-03 11:30:00,
2013-12-03 07:00:00,30.6,28.6,29.92,ENE,71,0.0,0.0,92,0.00,,---,0.00,VWS V14.00,2013-12-03 12:00:00,
2013-12-03 07:30:00,30.8,28.5,29.92,ENE,71,0.0,0.0,91,0.00,,---,0.00,VWS V14.00,2013-12-03 12:30:00,
2013-12-03 08:00:00,31.2,28.9,29.93,ENE,71,0.0,0.0,91,0.00,,---,0.00,VWS V14.00,2013-12-03 13:00:00,
2013-12-03 08:30:00,31.4,29.1,29.93,ENE,71,0.0,1.0,91,0.00,,---,0.00,VWS V14.00,2013-12-03 13:30:00,
2013-12-03 09:00:00,31.9,29.8,29.93,ENE,71,0.0,0.0,92,0.00,,---,0.00,VWS V14.00,2013-12-03 14:00:00,
2013-12-03 09:30:00,32.5,30.4,29.93,ENE,71,0.0,0.0,92,0.00,,---,0.00,VWS V14.00,2013-12-03 14:30:00,
2013-12-03 10:00:00,33.1,30.8,29.93,WNW,299,0.0,0.0,91,0.00,,---,0.00,VWS V14.00,2013-12-03 15:00:00,
2013-12-03 10:30:00,32.9,30.6,29.95,WNW,301,0.0,0.0,91,0.00,,---,0.00,VWS V14.00,2013-12-03 15:30:00,
2013-12-03 11:00:00,33.5,31.2,29.94,South,183,0.0,0.0,91,0.00,,---,0.00,VWS V14.00,2013-12-03 16:00:00,
2013-12-03 11:30:00,33.5,31.2,29.94,South,183,0.0,0.0,91,0.00,,---,0.00,VWS V14.00,2013-12-03 16:30:00,
2013-12-03 12:00:00,34.2,31.6,29.93,South,183,0.0,0.0,90,0.00,,---,0.00,VWS V14.00,2013-12-03 17:00:00,
2013-12-03 12:30:00,34.7,31.8,29.92,South,183,0.0,0.0,89,0.00,,---,0.00,VWS V14.00,2013-12-03 17:30:00,
2013-12-03 13:00:00,34.5,31.3,29.93,West,277,0.0,1.0,88,0.00,,---,0.00,VWS V14.00,2013-12-03 18:00:00,
2013-12-03 13:30:00,35.0,31.5,29.92,West,277,0.0,0.0,87,0.00,,---,0.00,VWS V14.00,2013-12-03 18:30:00,
2013-12-03 14:00:00,34.5,31.0,29.92,West,277,0.0,0.0,87,0.00,,---,0.00,VWS V14.00,2013-12-03 19:00:00,
2013-12-03 14:30:00,34.5,30.8,29.92,WNW,284,0.0,1.0,86,0.00,,---,0.00,VWS V14.00,2013-12-03 19:30:00,
2013-12-03 15:00:00,33.5,30.3,29.93,NNE,17,0.0,1.0,88,0.00,,---,0.00,VWS V14.00,2013-12-03 20:00:00,
2013-12-03 15:30:00,33.8,30.6,29.94,NNE,22,0.0,0.0,88,0.00,,---,0.00,VWS V14.00,2013-12-03 20:30:00,
2013-12-03 16:00:00,34.4,30.9,29.94,NNE,22,0.0,0.0,87,0.00,,---,0.00,VWS V14.00,2013-12-03 21:00:00,
2013-12-03 16:30:00,34.5,30.8,29.94,NNE,22,0.0,0.0,86,0.00,,---,0.00,VWS V14.00,2013-12-03 21:30:00,
2013-12-03 17:00:00,33.7,30.0,29.95,NNE,22,0.0,0.0,86,0.00,,---,0.00,VWS V14.00,2013-12-03 22:00:00,
2013-12-03 17:30:00,33.1,29.7,29.95,East,86,0.0,0.0,87,0.00,,---,0.00,VWS V14.00,2013-12-03 22:30:00,
2013-12-03 18:00:00,32.3,29.4,29.96,ENE,76,0.0,0.0,89,0.00,,---,0.00,VWS V14.00,2013-12-03 23:00:00,
2013-12-03 18:30:00,32.0,29.4,29.96,West,264,0.0,0.0,90,0.00,,---,0.00,VWS V14.00,2013-12-03 23:30:00,
2013-12-03 19:00:00,32.0,29.4,29.97,WNW,291,0.0,1.0,90,0.00,,---,0.00,VWS V14.00,2013-12-04 00:00:00,
2013-12-03 19:30:00,31.3,29.0,29.97,NNE,22,0.0,2.0,91,0.00,,---,0.00,VWS V14.00,2013-12-04 00:30:00,
2013-12-03 20:00:00,30.9,28.9,29.97,South,181,0.0,1.0,92,0.00,,---,0.00,VWS V14.00,2013-12-04 01:00:00,
2013-12-03 20:30:00,30.7,28.9,29.97,North,9,0.0,3.0,93,0.00,,---,0.00,VWS V14.00,2013-12-04 01:30:00,
2013-12-03 21:00:00,30.7,28.7,29.97,North,360,0.0,0.0,92,0.00,,---,0.00,VWS V14.00,2013-12-04 02:00:00,